Location: Township of Marena
(38.1747°N, 99.6798°W)
Time: 10:37:04
(UTC+00:00)

Cosmos 2227 Rocket - Pass Details

Date: 26 October 2020
Orbit: 839 x 845 km, 71.0° (Epoch: 25 November)

Event Time Altitude Azimuth Distance (km) Brightness Sun altitude
Rises 00:39:59 0° 347° (NNW) 3,404 5.4 -11.1°
Reaches altitude 10° 00:42:48 10° 360° (N) 2,467 4.6 -11.6°
Maximum altitude 00:47:36 28° 58° (ENE) 1,540 3.1 -12.6°
Enters shadow 00:51:04 16° 107° (ESE) 2,073 3.7 -13.2°
